| time (UTC) | temp C | wind direction | speed KPH | gust KPH | rain 1hr cm | rain 24hr cm | rain mn cm | humidity % | barometer mb |
| 20260507180527 | 17 | 244 | 0.0 | 3.2 | 0.00 | 0.00 | 0.00 | 38 | 1014.7 |
| 20260507180033 | 18 | 232 | 0.0 | 6.4 | 0.00 | 0.00 | 0.00 | 37 | 1014.7 |
| 20260507175537 | 18 | 264 | 0.0 | 6.4 | 0.00 | 0.00 | 0.00 | 38 | 1014.8 |
| 20260507175022 | 17 | 259 | 1.6 | 4.8 | 0.00 | 0.00 | 0.00 | 39 | 1014.9 |
| 20260507174530 | 17 | 247 | 0.0 | 6.4 | 0.00 | 0.00 | 0.00 | 37 | 1015.0 |
| 20260507174037 | 17 | 252 | 0.0 | 8.0 | 0.00 | 0.00 | 0.00 | 37 | 1015.1 |
| 20260507173542 | 17 | 277 | 0.0 | 8.0 | 0.00 | 0.00 | 0.00 | 37 | 1015.1 |
| 20260507173026 | 17 | 227 | 0.0 | 4.8 | 0.00 | 0.00 | 0.00 | 36 | 1015.2 |
| 20260507172531 | 17 | 175 | 1.6 | 6.4 | 0.00 | 0.00 | 0.00 | 38 | 1015.2 |
| 20260507172036 | 17 | 287 | 1.6 | 6.4 | 0.00 | 0.00 | 0.00 | 39 | 1015.3 |
| 20260507171521 | 17 | 204 | 0.0 | 6.4 | 0.00 | 0.00 | 0.00 | 38 | 1015.4 |
| 20260507171028 | 17 | 188 | 1.6 | 6.4 | 0.00 | 0.00 | 0.00 | 38 | 1015.5 |
| 20260507170533 | 16 | 222 | 0.0 | 8.0 | 0.00 | 0.00 | 0.00 | 38 | 1015.6 |
| 20260507170038 | 17 | 128 | 1.6 | 8.0 | 0.00 | 0.00 | 0.00 | 36 | 1015.7 |
| 20260507165524 | 16 | 313 | 0.0 | 3.2 | 0.00 | 0.00 | 0.00 | 38 | 1015.8 |
| 20260507165033 | 16 | 223 | 0.0 | 6.4 | 0.00 | 0.00 | 0.00 | 37 | 1015.8 |
| 20260507164538 | 17 | 270 | 1.6 | 6.4 | 0.00 | 0.00 | 0.00 | 37 | 1015.9 |
| 20260507164045 | 17 | 192 | 0.0 | 4.8 | 0.00 | 0.00 | 0.00 | 37 | 1015.9 |
| 20260507163530 | 17 | 248 | 1.6 | 3.2 | 0.00 | 0.00 | 0.00 | 39 | 1015.9 |
| 20260507163035 | 16 | 237 | 0.0 | 1.6 | 0.00 | 0.00 | 0.00 | 43 | 1015.9 |
| 20260507162522 | 16 | 231 | 0.0 | 1.6 | 0.00 | 0.00 | 0.00 | 41 | 1016.0 |
| 20260507162029 | 16 | 248 | 0.0 | 1.6 | 0.00 | 0.00 | 0.00 | 41 | 1016.0 |
| 20260507161533 | 16 | 215 | 0.0 | 3.2 | 0.00 | 0.00 | 0.00 | 40 | 1016.0 |
| 20260507161036 | 15 | 207 | 0.0 | 3.2 | 0.00 | 0.00 | 0.00 | 41 | 1016.0 |
| 20260507160535 | 16 | 213 | 0.0 | 3.2 | 0.00 | 0.00 | 0.00 | 40 | 1016.0 |
| 20260507160040 | 15 | 234 | 0.0 | 17.7 | 0.00 | 0.00 | 0.00 | 41 | 1016.0 |
| 20260507155528 | 15 | 244 | 0.0 | 17.7 | 0.00 | 0.00 | 0.00 | 39 | 1016.1 |
| 20260507155033 | 15 | 193 | 0.0 | 1.6 | 0.00 | 0.00 | 0.00 | 43 | 1016.0 |
| 20260507154519 | 15 | 221 | 0.0 | 1.6 | 0.00 | 0.00 | 0.00 | 41 | 1016.1 |
| 20260507154024 | 15 | 174 | 0.0 | 1.6 | 0.00 | 0.00 | 0.00 | 43 | 1016.2 |
| 20260507153550 | 15 | 167 | 0.0 | 0.0 | 0.00 | 0.00 | 0.00 | 44 | 1016.2 |
| 20260507153054 | 15 | 211 | 0.0 | 3.2 | 0.00 | 0.00 | 0.00 | 46 | 1016.3 |
| 20260507152600 | 15 | 254 | 0.0 | 3.2 | 0.00 | 0.00 | 0.00 | 46 | 1016.3 |
| 20260507152025 | 15 | 232 | 0.0 | 1.6 | 0.00 | 0.00 | 0.00 | 46 | 1016.5 |
| 20260507151531 | 15 | 190 | 0.0 | 3.2 | 0.00 | 0.00 | 0.00 | 48 | 1016.5 |
| 20260507151036 | 15 | 213 | 0.0 | 1.6 | 0.00 | 0.00 | 0.00 | 47 | 1016.5 |
| 20260507150521 | 14 | 208 | 0.0 | 1.6 | 0.00 | 0.00 | 0.00 | 47 | 1016.4 |
| 20260507150024 | 14 | 263 | 0.0 | 0.0 | 0.00 | 0.00 | 0.00 | 47 | 1016.4 |
| 20260507145529 | 14 | 209 | 0.0 | 0.0 | 0.00 | 0.00 | 0.00 | 47 | 1016.5 |
| 20260507145039 | 14 | 228 | 0.0 | 3.2 | 0.00 | 0.00 | 0.00 | 46 | 1016.5 |
| 20260507144525 | 13 | 232 | 0.0 | 3.2 | 0.00 | 0.00 | 0.00 | 45 | 1016.6 |
| 20260507144031 | 13 | 200 | 0.0 | 1.6 | 0.00 | 0.00 | 0.00 | 46 | 1016.6 |
| 20260507143537 | 13 | 273 | 0.0 | 3.2 | 0.00 | 0.00 | 0.00 | 48 | 1016.5 |
| 20260507143023 | 13 | 226 | 0.0 | 1.6 | 0.00 | 0.00 | 0.00 | 47 | 1016.5 |
| 20260507142548 | 13 | 221 | 0.0 | 1.6 | 0.00 | 0.00 | 0.00 | 47 | 1016.5 |
| 20260507142053 | 13 | 219 | 0.0 | 1.6 | 0.00 | 0.00 | 0.00 | 48 | 1016.6 |
| 20260507141538 | 13 | 196 | 0.0 | 1.6 | 0.00 | 0.00 | 0.00 | 49 | 1016.6 |
| 20260507141044 | 13 | 250 | 0.0 | 1.6 | 0.00 | 0.00 | 0.00 | 51 | 1016.6 |
| 20260507140529 | 12 | 223 | 0.0 | 1.6 | 0.00 | 0.00 | 0.00 | 53 | 1016.6 |
| 20260507140035 | 12 | 223 | 0.0 | 0.0 | 0.00 | 0.00 | 0.00 | 55 | 1016.7 |
| 20260507135521 | 12 | 201 | 0.0 | 0.0 | 0.00 | 0.00 | 0.00 | 57 | 1016.7 |
| 20260507135030 | 12 | 163 | 0.0 | 0.0 | 0.00 | 0.00 | 0.00 | 57 | 1016.7 |
| 20260507134536 | 11 | 194 | 0.0 | 0.0 | 0.00 | 0.00 | 0.00 | 59 | 1016.7 |
| 20260507134023 | 11 | 195 | 0.0 | 0.0 | 0.00 | 0.00 | 0.00 | 58 | 1016.7 |
| 20260507133549 | 11 | 191 | 0.0 | 0.0 | 0.00 | 0.00 | 0.00 | 60 | 1016.7 |
| 20260507133031 | 11 | 192 | 0.0 | 0.0 | 0.00 | 0.00 | 0.00 | 61 | 1016.8 |
| 20260507132536 | 11 | 168 | 0.0 | 0.0 | 0.00 | 0.00 | 0.00 | 61 | 1016.9 |
| 20260507132059 | 10 | 202 | 0.0 | 0.0 | 0.00 | 0.00 | 0.00 | 61 | 1016.8 |
| 20260507131524 | 10 | 180 | 0.0 | 0.0 | 0.00 | 0.00 | 0.00 | 64 | 1016.9 |
| 20260507131027 | 10 | 181 | 0.0 | 0.0 | 0.00 | 0.00 | 0.00 | 65 | 1016.9 |
| 20260507130532 | 10 | 180 | 0.0 | 0.0 | 0.00 | 0.00 | 0.00 | 66 | 1016.9 |
| 20260507130038 | 9 | 180 | 0.0 | 0.0 | 0.00 | 0.00 | 0.00 | 66 | 1016.9 |
| 20260507125523 | 9 | 186 | 0.0 | 0.0 | 0.00 | 0.00 | 0.00 | 67 | 1016.9 |
| 20260507125030 | 8 | 200 | 0.0 | 0.0 | 0.00 | 0.00 | 0.00 | 68 | 1016.9 |
| 20260507124534 | 8 | 200 | 0.0 | 0.0 | 0.00 | 0.00 | 0.00 | 68 | 1016.9 |
| 20260507124019 | 8 | 192 | 0.0 | 0.0 | 0.00 | 0.00 | 0.00 | 70 | 1016.8 |
| 20260507123527 | 8 | 200 | 0.0 | 0.0 | 0.00 | 0.00 | 0.00 | 72 | 1016.7 |
| 20260507123034 | 8 | 212 | 0.0 | 0.0 | 0.00 | 0.00 | 0.00 | 73 | 1016.7 |
| 20260507122520 | 7 | 208 | 0.0 | 0.0 | 0.00 | 0.00 | 0.00 | 74 | 1016.6 |
| 20260507122048 | 7 | 208 | 0.0 | 0.0 | 0.00 | 0.00 | 0.00 | 77 | 1016.6 |
| 20260507121533 | 7 | 215 | 0.0 | 0.0 | 0.00 | 0.00 | 0.00 | 79 | 1016.6 |
| 20260507121039 | 7 | 215 | 0.0 | 0.0 | 0.00 | 0.00 | 0.00 | 79 | 1016.6 |
| 20260507120526 | 7 | 215 | 0.0 | 0.0 | 0.00 | 0.00 | 0.00 | 80 | 1016.5 |
| 20260507120031 | 7 | 216 | 0.0 | 0.0 | 0.00 | 0.00 | 0.00 | 80 | 1016.5 |
| 20260507115542 | 7 | 219 | 0.0 | 0.0 | 0.00 | 0.00 | 0.00 | 81 | 1016.4 |
| 20260507115028 | 7 | 220 | 0.0 | 0.0 | 0.00 | 0.00 | 0.00 | 80 | 1016.4 |
| 20260507114554 | 7 | 227 | 0.0 | 0.0 | 0.00 | 0.00 | 0.00 | 80 | 1016.4 |
| 20260507114039 | 7 | 230 | 0.0 | 0.0 | 0.00 | 0.00 | 0.00 | 80 | 1016.3 |
| 20260507113525 | 7 | 252 | 0.0 | 0.0 | 0.00 | 0.00 | 0.00 | 80 | 1016.3 |
| 20260507113052 | 7 | 252 | 0.0 | 0.0 | 0.00 | 0.00 | 0.00 | 80 | 1016.2 |
| 20260507112535 | 7 | 252 | 0.0 | 0.0 | 0.00 | 0.00 | 0.00 | 80 | 1016.2 |
| 20260507112021 | 7 | 252 | 0.0 | 0.0 | 0.00 | 0.00 | 0.00 | 80 | 1016.2 |
| 20260507111528 | 7 | 254 | 0.0 | 0.0 | 0.00 | 0.00 | 0.00 | 80 | 1016.2 |
| 20260507111035 | 7 | 297 | 0.0 | 0.0 | 0.00 | 0.00 | 0.00 | 79 | 1016.2 |
| 20260507110522 | 7 | 297 | 0.0 | 0.0 | 0.00 | 0.00 | 0.00 | 79 | 1016.0 |
| 20260507110045 | 7 | 297 | 0.0 | 0.0 | 0.00 | 0.00 | 0.00 | 79 | 1016.1 |
| 20260507105530 | 7 | 297 | 0.0 | 0.0 | 0.00 | 0.00 | 0.00 | 79 | 1016.0 |
| 20260507105030 | 7 | 297 | 0.0 | 0.0 | 0.00 | 0.00 | 0.00 | 78 | 1016.0 |
| 20260507104534 | 7 | 297 | 0.0 | 0.0 | 0.00 | 0.00 | 0.00 | 79 | 1015.8 |
| 20260507104020 | 7 | 297 | 0.0 | 0.0 | 0.00 | 0.00 | 0.00 | 79 | 1015.9 |
| 20260507103526 | 7 | 297 | 0.0 | 0.0 | 0.00 | 0.00 | 0.00 | 79 | 1016.0 |
| 20260507103052 | 7 | 297 | 0.0 | 0.0 | 0.00 | 0.00 | 0.00 | 79 | 1016.0 |
| 20260507102537 | 7 | 297 | 0.0 | 0.0 | 0.00 | 0.00 | 0.00 | 80 | 1016.0 |
| 20260507102023 | 7 | 299 | 0.0 | 0.0 | 0.00 | 0.00 | 0.00 | 80 | 1016.0 |
| 20260507101529 | 6 | 299 | 0.0 | 0.0 | 0.00 | 0.00 | 0.00 | 81 | 1016.0 |
| 20260507101035 | 6 | 299 | 0.0 | 0.0 | 0.00 | 0.00 | 0.00 | 81 | 1016.0 |
| 20260507100542 | 6 | 299 | 0.0 | 0.0 | 0.00 | 0.00 | 0.00 | 82 | 1015.9 |
| 20260507100027 | 6 | 299 | 0.0 | 0.0 | 0.00 | 0.00 | 0.00 | 83 | 1016.1 |
| 20260507095532 | 6 | 299 | 0.0 | 0.0 | 0.00 | 0.00 | 0.00 | 84 | 1016.1 |
| 20260507095034 | 6 | 299 | 0.0 | 0.0 | 0.00 | 0.00 | 0.00 | 84 | 1016.0 |
| 20260507094523 | 6 | 299 | 0.0 | 0.0 | 0.00 | 0.00 | 0.00 | 85 | 1016.1 |
| 20260507094029 | 6 | 299 | 0.0 | 0.0 | 0.00 | 0.00 | 0.00 | 86 | 1016.0 |
| 20260507093534 | 6 | 299 | 0.0 | 0.0 | 0.00 | 0.00 | 0.00 | 86 | 1016.0 |
| 20260507093037 | 6 | 299 | 0.0 | 0.0 | 0.00 | 0.00 | 0.00 | 86 | 1016.1 |
| 20260507092521 | 5 | 299 | 0.0 | 0.0 | 0.00 | 0.00 | 0.00 | 87 | 1016.2 |
| 20260507092023 | 5 | 299 | 0.0 | 0.0 | 0.00 | 0.00 | 0.00 | 87 | 1016.2 |
| 20260507091529 | 5 | 299 | 0.0 | 0.0 | 0.00 | 0.00 | 0.00 | 87 | 1015.9 |
| 20260507091031 | 5 | 299 | 0.0 | 0.0 | 0.00 | 0.00 | 0.00 | 87 | 1015.9 |
| 20260507090532 | 5 | 299 | 0.0 | 0.0 | 0.00 | 0.00 | 0.00 | 87 | 1016.0 |
| 20260507090019 | 5 | 299 | 0.0 | 0.0 | 0.00 | 0.00 | 0.00 | 87 | 1015.9 |
| 20260507085528 | 5 | 299 | 0.0 | 0.0 | 0.00 | 0.00 | 0.00 | 87 | 1015.6 |
| 20260507085030 | 5 | 299 | 0.0 | 0.0 | 0.00 | 0.00 | 0.00 | 86 | 1015.7 |
| 20260507084535 | 5 | 299 | 0.0 | 0.0 | 0.00 | 0.00 | 0.00 | 86 | 1015.8 |
| 20260507084020 | 5 | 299 | 0.0 | 0.0 | 0.00 | 0.00 | 0.00 | 86 | 1015.9 |
| 20260507083546 | 5 | 299 | 0.0 | 0.0 | 0.00 | 0.00 | 0.00 | 85 | 1015.8 |
| 20260507083049 | 5 | 299 | 0.0 | 0.0 | 0.00 | 0.00 | 0.00 | 85 | 1015.8 |
| 20260507082554 | 5 | 299 | 0.0 | 0.0 | 0.00 | 0.00 | 0.00 | 85 | 1015.9 |
| 20260507082036 | 5 | 299 | 0.0 | 0.0 | 0.00 | 0.00 | 0.00 | 85 | 1015.8 |
| 20260507081520 | 5 | 299 | 0.0 | 0.0 | 0.00 | 0.00 | 0.00 | 85 | 1015.9 |
| 20260507081023 | 5 | 299 | 0.0 | 0.0 | 0.00 | 0.00 | 0.00 | 85 | 1015.8 |
| 20260507080528 | 5 | 299 | 0.0 | 0.0 | 0.00 | 0.00 | 0.00 | 85 | 1015.8 |
| 20260507080034 | 5 | 299 | 0.0 | 0.0 | 0.00 | 0.00 | 0.00 | 84 | 1016.0 |
| 20260507075520 | 5 | 299 | 0.0 | 0.0 | 0.00 | 0.00 | 0.00 | 84 | 1016.0 |
| 20260507075045 | 5 | 299 | 0.0 | 0.0 | 0.00 | 0.00 | 0.00 | 84 | 1016.1 |
| 20260507074532 | 5 | 299 | 0.0 | 0.0 | 0.00 | 0.00 | 0.00 | 84 | 1016.1 |
| 20260507074036 | 5 | 299 | 0.0 | 0.0 | 0.00 | 0.00 | 0.00 | 84 | 1016.1 |
| 20260507073521 | 5 | 299 | 0.0 | 0.0 | 0.00 | 0.00 | 0.00 | 84 | 1016.2 |
| 20260507073028 | 5 | 299 | 0.0 | 0.0 | 0.00 | 0.00 | 0.00 | 84 | 1016.3 |
| 20260507072533 | 5 | 299 | 0.0 | 0.0 | 0.00 | 0.00 | 0.00 | 83 | 1016.3 |
| 20260507072020 | 5 | 299 | 0.0 | 0.0 | 0.00 | 0.00 | 0.00 | 83 | 1016.4 |
| 20260507071524 | 5 | 299 | 0.0 | 0.0 | 0.00 | 0.00 | 0.00 | 82 | 1016.6 |
| 20260507071029 | 5 | 299 | 0.0 | 0.0 | 0.00 | 0.00 | 0.00 | 82 | 1016.6 |
| 20260507070553 | 5 | 299 | 0.0 | 0.0 | 0.00 | 0.00 | 0.00 | 82 | 1016.5 |
| 20260507070037 | 5 | 299 | 0.0 | 0.0 | 0.00 | 0.00 | 0.00 | 82 | 1016.5 |
| 20260507065542 | 5 | 299 | 0.0 | 0.0 | 0.00 | 0.00 | 0.00 | 82 | 1016.5 |
| 20260507065027 | 5 | 299 | 0.0 | 0.0 | 0.00 | 0.00 | 0.00 | 81 | 1016.5 |
| 20260507064537 | 5 | 299 | 0.0 | 0.0 | 0.00 | 0.00 | 0.00 | 81 | 1016.5 |
| 20260507064022 | 5 | 299 | 0.0 | 0.0 | 0.00 | 0.00 | 0.00 | 81 | 1016.5 |
| 20260507063527 | 5 | 299 | 0.0 | 0.0 | 0.00 | 0.00 | 0.00 | 81 | 1016.5 |
| 20260507063034 | 5 | 299 | 0.0 | 0.0 | 0.00 | 0.00 | 0.00 | 80 | 1016.5 |
| 20260507062538 | 6 | 299 | 0.0 | 0.0 | 0.00 | 0.00 | 0.00 | 81 | 1016.5 |
| 20260507062022 | 6 | 299 | 0.0 | 0.0 | 0.00 | 0.00 | 0.00 | 81 | 1016.5 |
| 20260507061527 | 6 | 299 | 0.0 | 0.0 | 0.00 | 0.00 | 0.00 | 80 | 1016.5 |
| 20260507061033 | 6 | 299 | 0.0 | 0.0 | 0.00 | 0.00 | 0.00 | 80 | 1016.6 |
| 20260507060519 | 6 | 299 | 0.0 | 0.0 | 0.00 | 0.00 | 0.00 | 80 | 1016.5 |
| 20260507060025 | 6 | 299 | 0.0 | 0.0 | 0.00 | 0.00 | 0.00 | 80 | 1016.5 |
| 20260507055534 | 6 | 299 | 0.0 | 0.0 | 0.00 | 0.00 | 0.00 | 80 | 1016.4 |
| 20260507055058 | 6 | 299 | 0.0 | 0.0 | 0.00 | 0.00 | 0.00 | 80 | 1016.5 |
| 20260507054522 | 6 | 299 | 0.0 | 0.0 | 0.00 | 0.00 | 0.00 | 79 | 1016.5 |
| 20260507054047 | 6 | 299 | 0.0 | 0.0 | 0.00 | 0.00 | 0.00 | 78 | 1016.6 |
| 20260507053532 | 6 | 299 | 0.0 | 0.0 | 0.00 | 0.00 | 0.00 | 78 | 1016.7 |
| 20260507053037 | 6 | 299 | 0.0 | 0.0 | 0.00 | 0.00 | 0.00 | 77 | 1016.7 |
| 20260507052523 | 6 | 299 | 0.0 | 0.0 | 0.00 | 0.00 | 0.00 | 76 | 1016.6 |
| 20260507052029 | 7 | 299 | 0.0 | 0.0 | 0.00 | 0.00 | 0.00 | 76 | 1016.6 |
| 20260507051554 | 7 | 299 | 0.0 | 0.0 | 0.00 | 0.00 | 0.00 | 76 | 1016.6 |
| 20260507051038 | 7 | 299 | 0.0 | 0.0 | 0.00 | 0.00 | 0.00 | 75 | 1016.5 |
| 20260507050524 | 7 | 299 | 0.0 | 0.0 | 0.00 | 0.00 | 0.00 | 75 | 1016.4 |
| 20260507050029 | 7 | 299 | 0.0 | 0.0 | 0.00 | 0.00 | 0.00 | 74 | 1016.5 |
| 20260507045555 | 7 | 299 | 0.0 | 0.0 | 0.00 | 0.00 | 0.00 | 73 | 1016.5 |
| 20260507045022 | 7 | 299 | 0.0 | 0.0 | 0.00 | 0.00 | 0.00 | 72 | 1016.5 |
| 20260507044527 | 7 | 299 | 0.0 | 0.0 | 0.00 | 0.00 | 0.00 | 73 | 1016.4 |
| 20260507044052 | 8 | 299 | 0.0 | 0.0 | 0.00 | 0.00 | 0.00 | 73 | 1016.4 |
| 20260507043536 | 7 | 299 | 0.0 | 0.0 | 0.00 | 0.00 | 0.00 | 73 | 1016.4 |
| 20260507043041 | 7 | 299 | 0.0 | 0.0 | 0.00 | 0.00 | 0.00 | 71 | 1016.4 |
| 20260507042546 | 8 | 299 | 0.0 | 0.0 | 0.00 | 0.03 | 0.00 | 70 | 1016.4 |
| 20260507042030 | 8 | 299 | 0.0 | 0.0 | 0.00 | 0.03 | 0.00 | 69 | 1016.3 |
| 20260507041536 | 8 | 299 | 0.0 | 0.0 | 0.00 | 0.03 | 0.00 | 69 | 1016.4 |
| 20260507041021 | 8 | 299 | 0.0 | 0.0 | 0.00 | 0.03 | 0.00 | 68 | 1016.4 |
| 20260507040527 | 8 | 299 | 0.0 | 0.0 | 0.00 | 0.03 | 0.00 | 68 | 1016.3 |
| 20260507040033 | 8 | 299 | 0.0 | 0.0 | 0.00 | 0.03 | 0.00 | 67 | 1016.3 |
| 20260507035539 | 8 | 299 | 0.0 | 0.0 | 0.00 | 0.03 | 0.00 | 67 | 1016.4 |
| 20260507035024 | 8 | 299 | 0.0 | 0.0 | 0.00 | 0.03 | 0.00 | 66 | 1016.3 |
| 20260507034533 | 8 | 299 | 0.0 | 0.0 | 0.00 | 0.03 | 0.00 | 65 | 1016.3 |
| 20260507034039 | 9 | 299 | 0.0 | 0.0 | 0.00 | 0.03 | 0.00 | 65 | 1016.3 |
| 20260507033523 | 9 | 299 | 0.0 | 0.0 | 0.00 | 0.03 | 0.00 | 64 | 1016.2 |
| 20260507033028 | 9 | 299 | 0.0 | 0.0 | 0.00 | 0.03 | 0.00 | 64 | 1016.3 |
| 20260507032533 | 10 | 299 | 0.0 | 0.0 | 0.00 | 0.03 | 0.00 | 64 | 1016.3 |
| 20260507032019 | 10 | 300 | 0.0 | 0.0 | 0.00 | 0.03 | 0.00 | 62 | 1016.3 |
| 20260507031525 | 10 | 300 | 0.0 | 0.0 | 0.00 | 0.03 | 0.00 | 61 | 1016.3 |
| 20260507031030 | 10 | 300 | 0.0 | 0.0 | 0.00 | 0.03 | 0.00 | 59 | 1016.3 |
| 20260507030555 | 10 | 299 | 0.0 | 0.0 | 0.00 | 0.03 | 0.00 | 58 | 1016.2 |
| 20260507030039 | 10 | 299 | 0.0 | 0.0 | 0.00 | 0.03 | 0.00 | 58 | 1016.2 |
| 20260507025543 | 10 | 300 | 0.0 | 0.0 | 0.00 | 0.03 | 0.00 | 58 | 1016.2 |
| 20260507025026 | 10 | 300 | 0.0 | 0.0 | 0.00 | 0.03 | 0.00 | 57 | 1016.2 |
| 20260507024531 | 10 | 300 | 0.0 | 0.0 | 0.00 | 0.03 | 0.00 | 57 | 1016.2 |
| 20260507024020 | 10 | 54 | 0.0 | 0.0 | 0.00 | 0.03 | 0.00 | 56 | 1016.0 |
| 20260507023527 | 10 | 54 | 0.0 | 0.0 | 0.00 | 0.03 | 0.00 | 55 | 1016.0 |
| 20260507023052 | 11 | 54 | 0.0 | 0.0 | 0.00 | 0.03 | 0.00 | 55 | 1016.0 |
| 20260507022537 | 11 | 54 | 0.0 | 0.0 | 0.00 | 0.03 | 0.00 | 54 | 1015.9 |
| 20260507022022 | 11 | 54 | 0.0 | 0.0 | 0.00 | 0.03 | 0.00 | 54 | 1015.9 |
| 20260507021527 | 11 | 54 | 0.0 | 0.0 | 0.00 | 0.03 | 0.00 | 54 | 1015.8 |
| 20260507021032 | 11 | 54 | 0.0 | 0.0 | 0.00 | 0.03 | 0.00 | 53 | 1015.8 |
| 20260507020537 | 11 | 54 | 0.0 | 0.0 | 0.00 | 0.03 | 0.00 | 53 | 1015.6 |
| 20260507020021 | 11 | 55 | 0.0 | 0.0 | 0.00 | 0.03 | 0.00 | 51 | 1015.6 |
| 20260507015527 | 12 | 55 | 0.0 | 0.0 | 0.00 | 0.03 | 0.00 | 51 | 1015.5 |
| 20260507015032 | 12 | 55 | 0.0 | 0.0 | 0.00 | 0.03 | 0.00 | 50 | 1015.5 |
| 20260507014521 | 12 | 55 | 0.0 | 0.0 | 0.00 | 0.03 | 0.00 | 50 | 1015.5 |
| 20260507014046 | 12 | 55 | 0.0 | 0.0 | 0.00 | 0.03 | 0.00 | 49 | 1015.5 |
| 20260507013529 | 12 | 55 | 0.0 | 0.0 | 0.00 | 0.03 | 0.00 | 48 | 1015.5 |
| 20260507013034 | 13 | 55 | 0.0 | 0.0 | 0.00 | 0.03 | 0.00 | 47 | 1015.4 |
| 20260507012520 | 13 | 61 | 0.0 | 0.0 | 0.00 | 0.03 | 0.00 | 46 | 1015.4 |
| 20260507012026 | 13 | 61 | 0.0 | 0.0 | 0.00 | 0.03 | 0.00 | 46 | 1015.4 |
| 20260507011533 | 13 | 66 | 0.0 | 0.0 | 0.00 | 0.03 | 0.00 | 45 | 1015.4 |
| 20260507011019 | 13 | 11 | 0.0 | 0.0 | 0.00 | 0.03 | 0.00 | 44 | 1015.3 |
| 20260507010525 | 13 | 323 | 0.0 | 0.0 | 0.00 | 0.03 | 0.00 | 45 | 1015.2 |
| 20260507010052 | 14 | 323 | 0.0 | 0.0 | 0.00 | 0.03 | 0.00 | 44 | 1015.2 |
| 20260507005534 | 14 | 350 | 0.0 | 0.0 | 0.00 | 0.03 | 0.00 | 42 | 1015.0 |
| 20260507005023 | 14 | 28 | 0.0 | 0.0 | 0.00 | 0.03 | 0.00 | 43 | 1015.0 |
| 20260507004548 | 14 | 22 | 0.0 | 0.0 | 0.00 | 0.03 | 0.00 | 43 | 1014.9 |
| 20260507004033 | 14 | 27 | 0.0 | 1.6 | 0.00 | 0.03 | 0.00 | 44 | 1014.8 |
| 20260507003537 | 15 | 355 | 0.0 | 1.6 | 0.00 | 0.03 | 0.00 | 43 | 1014.7 |
| 20260507003041 | 15 | 17 | 0.0 | 1.6 | 0.00 | 0.03 | 0.00 | 43 | 1014.6 |
| 20260507002545 | 15 | 57 | 0.0 | 1.6 | 0.00 | 0.05 | 0.00 | 42 | 1014.5 |
| 20260507002049 | 15 | 53 | 0.0 | 0.0 | 0.00 | 0.05 | 0.00 | 42 | 1014.4 |
| 20260507001533 | 15 | 285 | 0.0 | 0.0 | 0.00 | 0.05 | 0.00 | 41 | 1014.3 |
| 20260507001057 | 15 | 348 | 0.0 | 1.6 | 0.00 | 0.05 | 0.00 | 41 | 1014.3 |
| 20260507000542 | 15 | 30 | 0.0 | 0.0 | 0.00 | 0.05 | 0.00 | 41 | 1014.2 |
| 20260507000045 | 15 | 275 | 0.0 | 0.0 | 0.00 | 0.05 | 0.00 | 42 | 1014.2 |
| 20260506235529 | 16 | 37 | 0.0 | 0.0 | 0.00 | 0.05 | 0.00 | 41 | 1014.1 |
| 20260506235034 | 16 | 291 | 0.0 | 0.0 | 0.00 | 0.05 | 0.00 | 40 | 1014.2 |
| 20260506234521 | 16 | 38 | 0.0 | 1.6 | 0.00 | 0.05 | 0.00 | 39 | 1014.1 |
| 20260506234026 | 16 | 69 | 0.0 | 1.6 | 0.00 | 0.05 | 0.00 | 39 | 1014.2 |
| 20260506233531 | 16 | 279 | 0.0 | 1.6 | 0.00 | 0.05 | 0.00 | 39 | 1014.2 |
| 20260506233020 | 16 | 39 | 0.0 | 1.6 | 0.00 | 0.05 | 0.00 | 37 | 1014.3 |
| 20260506232524 | 16 | 302 | 0.0 | 0.0 | 0.00 | 0.05 | 0.00 | 39 | 1014.2 |
| 20260506232029 | 16 | 85 | 0.0 | 0.0 | 0.00 | 0.05 | 0.00 | 39 | 1014.2 |
| 20260506231534 | 16 | 69 | 0.0 | 1.6 | 0.00 | 0.05 | 0.00 | 39 | 1014.2 |
| 20260506231020 | 16 | 5 | 0.0 | 1.6 | 0.00 | 0.05 | 0.00 | 40 | 1014.0 |
| 20260506230545 | 16 | 342 | 0.0 | 1.6 | 0.00 | 0.05 | 0.00 | 39 | 1014.1 |
| 20260506230029 | 16 | 19 | 0.0 | 1.6 | 0.00 | 0.05 | 0.00 | 40 | 1014.1 |
| 20260506225555 | 16 | 78 | 0.0 | 4.8 | 0.00 | 0.05 | 0.00 | 39 | 1014.3 |
| 20260506225059 | 16 | 313 | 0.0 | 4.8 | 0.00 | 0.05 | 0.00 | 38 | 1014.4 |
| 20260506224523 | 16 | 126 | 0.0 | 3.2 | 0.00 | 0.05 | 0.00 | 40 | 1014.3 |
| 20260506224028 | 17 | 49 | 0.0 | 3.2 | 0.00 | 0.05 | 0.00 | 37 | 1014.2 |
| 20260506223534 | 17 | 117 | 0.0 | 1.6 | 0.00 | 0.05 | 0.00 | 38 | 1014.2 |
| 20260506223059 | 17 | 34 | 0.0 | 3.2 | 0.00 | 0.05 | 0.00 | 38 | 1014.1 |
| 20260506222523 | 16 | 12 | 0.0 | 3.2 | 0.00 | 0.10 | 0.00 | 38 | 1014.3 |
| 20260506222031 | 16 | 58 | 0.0 | 3.2 | 0.00 | 0.10 | 0.00 | 38 | 1014.2 |
| 20260506221536 | 16 | 42 | 0.0 | 3.2 | 0.00 | 0.10 | 0.00 | 39 | 1014.2 |
| 20260506221021 | 16 | 70 | 0.0 | 4.8 | 0.00 | 0.10 | 0.00 | 39 | 1014.1 |
| 20260506220526 | 16 | 80 | 0.0 | 3.2 | 0.00 | 0.10 | 0.00 | 39 | 1014.1 |
| 20260506220051 | 16 | 61 | 0.0 | 3.2 | 0.00 | 0.10 | 0.00 | 37 | 1014.0 |
| 20260506215535 | 17 | 30 | 0.0 | 1.6 | 0.00 | 0.10 | 0.00 | 38 | 1014.0 |
| 20260506215021 | 17 | 26 | 0.0 | 1.6 | 0.00 | 0.10 | 0.00 | 37 | 1014.2 |
| 20260506214526 | 17 | 34 | 0.0 | 3.2 | 0.00 | 0.10 | 0.00 | 37 | 1014.2 |
| 20260506214051 | 17 | 23 | 0.0 | 3.2 | 0.00 | 0.10 | 0.00 | 39 | 1014.2 |
| 20260506213535 | 17 | 355 | 0.0 | 1.6 | 0.00 | 0.10 | 0.00 | 39 | 1014.2 |
| 20260506213041 | 17 | 42 | 0.0 | 3.2 | 0.00 | 0.10 | 0.00 | 39 | 1014.3 |
| 20260506212525 | 17 | 44 | 0.0 | 3.2 | 0.00 | 0.10 | 0.00 | 39 | 1014.2 |
| 20260506212030 | 17 | 113 | 0.0 | 3.2 | 0.00 | 0.10 | 0.00 | 38 | 1014.1 |
| 20260506211520 | 17 | 82 | 0.0 | 3.2 | 0.00 | 0.10 | 0.00 | 37 | 1014.2 |
| 20260506211044 | 17 | 50 | 0.0 | 1.6 | 0.00 | 0.10 | 0.00 | 39 | 1014.2 |
| 20260506210528 | 17 | 32 | 0.0 | 3.2 | 0.00 | 0.10 | 0.00 | 39 | 1014.4 |
| 20260506210054 | 17 | 305 | 0.0 | 4.8 | 0.00 | 0.10 | 0.00 | 37 | 1014.6 |
| 20260506205538 | 17 | 360 | 0.0 | 4.8 | 0.00 | 0.10 | 0.00 | 37 | 1014.5 |
| 20260506205043 | 17 | 332 | 0.0 | 6.4 | 0.00 | 0.10 | 0.00 | 39 | 1014.5 |
| 20260506204528 | 17 | 355 | 1.6 | 6.4 | 0.00 | 0.10 | 0.00 | 38 | 1014.5 |
| 20260506204033 | 17 | 39 | 1.6 | 4.8 | 0.00 | 0.10 | 0.00 | 37 | 1014.3 |
| 20260506203519 | 17 | 9 | 0.0 | 8.0 | 0.00 | 0.10 | 0.00 | 37 | 1014.6 |
| 20260506203024 | 17 | 46 | 0.0 | 8.0 | 0.00 | 0.10 | 0.00 | 38 | 1014.7 |
| 20260506202529 | 17 | 63 | 0.0 | 4.8 | 0.00 | 0.18 | 0.00 | 36 | 1014.8 |
| 20260506202033 | 17 | 71 | 0.0 | 8.0 | 0.00 | 0.18 | 0.00 | 36 | 1014.9 |
| 20260506201524 | 17 | 46 | 0.0 | 8.0 | 0.00 | 0.18 | 0.00 | 36 | 1014.7 |
| 20260506201029 | 18 | 55 | 0.0 | 1.6 | 0.00 | 0.18 | 0.00 | 36 | 1014.8 |
| 20260506200535 | 18 | 306 | 0.0 | 3.2 | 0.00 | 0.18 | 0.00 | 37 | 1015.0 |
| 20260506200019 | 18 | 46 | 0.0 | 3.2 | 0.00 | 0.18 | 0.00 | 36 | 1014.9 |
| 20260506195525 | 18 | 350 | 0.0 | 1.6 | 0.00 | 0.18 | 0.00 | 36 | 1015.1 |
| 20260506195030 | 17 | 329 | 0.0 | 1.6 | 0.00 | 0.18 | 0.00 | 39 | 1015.1 |
| 20260506194535 | 17 | 73 | 0.0 | 4.8 | 0.00 | 0.18 | 0.00 | 38 | 1015.1 |
| 20260506194020 | 17 | 34 | 0.0 | 4.8 | 0.00 | 0.18 | 0.00 | 37 | 1015.3 |
| 20260506193525 | 17 | 5 | 0.0 | 0.0 | 0.00 | 0.18 | 0.00 | 38 | 1015.2 |
| 20260506193031 | 17 | 113 | 0.0 | 4.8 | 0.00 | 0.18 | 0.00 | 42 | 1015.2 |
| 20260506192519 | 16 | 78 | 0.0 | 4.8 | 0.00 | 0.18 | 0.00 | 41 | 1015.4 |
| 20260506192024 | 16 | 69 | 0.0 | 4.8 | 0.00 | 0.18 | 0.00 | 44 | 1015.5 |
| 20260506191549 | 16 | 46 | 0.0 | 3.2 | 0.00 | 0.18 | 0.00 | 42 | 1015.5 |
| 20260506191033 | 16 | 105 | 0.0 | 3.2 | 0.00 | 0.18 | 0.00 | 41 | 1015.5 |
| 20260506190559 | 17 | 42 | 0.0 | 3.2 | 0.00 | 0.18 | 0.00 | 40 | 1015.6 |
| 20260506190023 | 18 | 74 | 0.0 | 3.2 | 0.00 | 0.18 | 0.00 | 38 | 1015.8 |
| 20260506185549 | 17 | 184 | 0.0 | 1.6 | 0.00 | 0.18 | 0.00 | 41 | 1015.8 |
| 20260506185033 | 17 | 279 | 0.0 | 1.6 | 0.00 | 0.18 | 0.00 | 39 | 1015.8 |
| 20260506184558 | 17 | 260 | 0.0 | 1.6 | 0.00 | 0.18 | 0.00 | 42 | 1016.0 |
| 20260506184021 | 17 | 360 | 0.0 | 1.6 | 0.00 | 0.18 | 0.00 | 41 | 1015.9 |
| 20260506183526 | 17 | 83 | 0.0 | 3.2 | 0.00 | 0.18 | 0.00 | 39 | 1015.9 |
| 20260506183031 | 17 | 313 | 0.0 | 3.2 | 0.00 | 0.18 | 0.00 | 41 | 1015.9 |
| 20260506182536 | 17 | 53 | 0.0 | 3.2 | 0.00 | 0.18 | 0.00 | 42 | 1015.9 |
| 20260506182042 | 16 | 274 | 0.0 | 3.2 | 0.00 | 0.18 | 0.00 | 42 | 1016.1 |
| 20260506181525 | 17 | 47 | 0.0 | 1.6 | 0.00 | 0.18 | 0.00 | 42 | 1016.1 |
| 20260506181035 | 16 | 19 | 0.0 | 1.6 | 0.00 | 0.18 | 0.00 | 44 | 1016.2 |